SCP
-0 -0 -0 -0 -0 -0 -0 -0 -0 -0 -0 -0 -0 0 0 0 0 0 0 0 0 0 0 0 0 0 0 0 0 0 0 0 0 0 0 0 0 0 0 0 0 0 0 0 0
-0 -0 -0 -0 -0 -0 -0 -0 -0 -0 0 0 0 0 0 0 0 0 0 0 0 0 0 0 0 0 0 0 0 0 0 0 0 0 0 0 0 0 0 0 0 0 0 0 0
-0 -0 -0 -0 -0 -0 -0 -0 -0 0 0 0 0 0 0 0 0 0 0 0 0 0 0 0 0 0 0 0 0 0 0 0 0 0 0 0 0 0 0 0 0 0 0 0 0
0 0 -0 -0 -0 -0 -0 0 -0 -0 -0 0 0 0 0 0 0 0 0 0 0 0 0 0 0 0 0 0 0 0 0 0 0 0 0 0 0 0 0 0 0 0 0 0 0
0 0 -0 -0 -0 -0 0 -0 0 0 0 0 0 0 0 0 0 0 0 0 0 0 0 0 0 0 0 0 0 0 0 0 0 0 0 0 0 0 0 0 0 0 0 0 0
-0 -0 -0 -0 -0 0 -0 -0 -0 -0 -0 0 0 0 0 0 0 0 0 0 0 0 0 0 0 0 0 0 0 0 0 0 0 0 0 0 0 0 0 0 0 0 0 0 0
-0 -0 -0 -0 -0 -0 -0 -0 -0 -0 0 0 0 0 0 0 0 0 0 0 0 0 0 0 0 0 0 0 0 0 0 0 -0 0 0 0 0 0 0 0 0 0 0 0 0
-0 -0 -0 -0 -0 -0 -0 -0 -0 0 0 0 0 0 0 0 0 0 0 0 0 0 0 0 0 0 0 0 0 0 0 -0 0 0 0 0 0 0 0 0 0 0 0 0 0
0 -0 -0 -0 -0 -0 -0 -0 0 0 0 0 0 0 0 0 0 0 0 0 0 0 0 0 0 0 0 0 0 0 0 0 -0 0 0 0 0 0 0 0 0 0 0 0 0
-0 -0 -0 -0 -0 -0 -0 0 0 0 0 0 0 0 0 0 0 0 0 0 0 0 0 0 0 0 0 0 0 0 0 0 0 0 0 0 0 0 0 0 0 0 0 0 0
0 -0 -0 -0 -0 -0 0 0 0 0 0 0 0 0 0 0 0 0 0 0 0 0 0 0 0 0 0 0 0 0 0 0 0 0 0 0 0 0 0 0 0 0 0 0 0
0 -0 -0 -0 0 0 0 0 0 0 0 0 0 0 0 0 0 0 0 0 0 0 0 0 0 0 0 0 0 0 0 0 0 0 0 0 0 0 0 0 0 0 0 0 0
0 0 -0 0 0 0 0 0 0 0 0 0 0 0 0 0 0 0 0 0 0 0 0 0 0 0 0 0 0 0 0 0 0 0 0 0 0 0 0 0 0 0 0 0 0
0 0 0 0 0 0 0 0 0 0 0 0 0 0 0 0 0 0 0 0 0 0 0 0 0 0 0 0 0 0 0 0 0 0 0 0 0 0 0 0 0 0 0 0 0
0 0 0 0 0 0 0 0 0 0 0 0 0 0 0 0 0 0 0 0 0 0 0 0 0 0 0 0 0 0 0 0 0 0 0 0 0 0 0 0 0 0 -0 -0 0
0 0 0 0 0 0 0 0 0 0 0 0 0 0 0 0 0 0 0 0 0 0 0 0 0 0 0 0 0 0 0 0 0 0 0 0 0 0 0 0 -0 -0 -0 -0 -0
0 0 0 0 0 0 0 0 0 0 0 0 0 0 0 0 0 0 0 0 0 0 0 0 0 0 0 0 0 0 -0 -0 0 0 0 0 0 0 0 0 -0 -0 -0 -0 0
0 0 0 0 0 0 0 0 0 0 0 0 0 0 0 0 0 0 0 0 0 0 0 0 0 0 0 0 0 0 0 0 0 0 0 0 0 0 0 0 0 -0 0 0 0
0 0 0 0 0 0 0 0 0 0 0 0 0 0 0 0 0 0 0 0 0 0 0 0 0 0 0 0 0 0 0 0 0 0 0 0 0 0 0 0 0 0 0 0 0
0 0 0 0 0 0 0 0 0 0 0 0 0 0 0 0 0 0 0 0 0 0 0 0 0 0 0 0 0 0 0 0 0 0 0 0 0 0 0 -0 0 0 0 -0 0
0 0 0 0 0 0 0 0 0 0 0 0 0 0 0 0 0 0 0 0 0 0 0 0 0 0 0 0 0 -0 0 0 0 0 0 0 0 0 -0 0 0 -0 -0 -0 -0
0 0 0 0 0 0 0 0 0 0 0 0 0 0 0 0 0 0 0 0 0 0 0 0 0 0 0 0 0 0 0 0 0 0 0 0 0 0 0 0 0 0 -0 -0 -0
0 0 0 0 0 0 0 0 0 0 0 0 0 0 0 0 0 0 0 0 0 0 0 0 0 0 0 0 0 0 0 0 0 0 0 0 0 0 0 0 0 0 0 -0 -0
0 0 0 0 0 0 0 0 0 0 0 0 0 0 0 0 0 0 0 0 0 0 0 0 0 0 0 0 0 0 0 0 0 0 0 0 0 0 0 0 0 0 0 -0 -0
0 0 0 0 0 0 0 0 0 0 0 0 0 0 0 0 0 0 0 0 0 0 0 0 0 0 0 0 -0 0 0 0 0 0 0 0 0 0 0 0 0 0 0 -0 -0
0 0 0 0 0 0 0 0 0 0 0 0 0 0 0 0 0 0 0 0 0 0 0 0 0 0 0 0 -0 0 0 0 0 0 0 0 0 0 0 0 0 0 0 0 0
0 0 0 0 0 0 0 0 0 0 0 0 0 0 0 0 0 0 0 0 0 0 0 0 0 0 0 0 -0 -0 0 0 0 0 0 0 0 0 0 0 0 0 0 0 0
Wind_Speed_500mb
24 26 30 32 27 22 26 28 21 23 28 25 21 20 19 12 20 23 30 30 38 41 36 29 17 19 8 11 9 3 6 4 7 6 6 10 14 12 17 30 26 23 49 64 66
28 30 31 32 25 23 25 26 29 26 25 22 19 19 14 4 9 40 35 30 36 40 40 42 38 27 9 10 9 9 5 7 5 4 6 17 16 30 18 36 25 63 64 52 52
30 28 33 36 29 29 29 30 32 27 23 18 16 16 10 3 6 25 34 35 36 37 33 26 25 17 11 10 14 7 6 0 7 12 16 19 24 8 11 14 52 43 66 68 67
31 32 33 32 30 28 29 29 29 27 24 19 17 14 9 8 6 25 34 39 37 35 28 26 26 11 9 8 10 9 7 8 18 24 26 12 24 19 42 66 55 61 70 71 71
30 29 30 30 31 30 28 26 26 25 22 19 16 10 10 16 13 22 40 37 30 26 29 30 32 12 7 9 18 3 7 20 37 62 48 46 40 32 60 75 71 55 46 50 51
32 30 31 30 30 29 28 28 27 22 18 17 12 13 10 12 21 26 34 23 31 28 23 25 17 13 2 4 2 15 32 37 38 41 33 22 20 10 21 60 57 57 60 54 55
32 32 30 31 30 29 29 28 21 17 18 16 9 20 28 16 25 31 24 27 30 23 19 13 13 14 13 8 14 17 15 13 10 6 11 15 15 17 32 37 53 61 60 62 71
31 30 29 29 29 29 28 23 14 18 13 15 10 3 9 19 31 20 26 21 12 23 17 10 10 8 8 15 12 12 5 12 6 23 10 9 22 8 37 36 54 66 68 77 85
32 31 31 29 29 28 28 16 13 17 12 14 12 6 6 15 22 26 36 32 9 19 11 13 9 9 9 7 8 13 9 24 18 5 9 11 34 11 34 68 74 72 71 70 77
31 32 33 30 29 28 28 12 7 18 14 5 15 6 19 25 12 25 37 30 13 16 5 17 13 7 8 10 5 19 21 17 32 8 17 35 52 44 57 56 57 46 47 50 58
32 32 33 32 28 28 28 9 8 2 25 15 11 5 20 34 6 26 36 20 16 16 10 14 11 1 7 9 10 14 27 42 44 38 32 35 40 40 51 43 14 35 44 52 53
33 32 30 31 27 29 23 12 12 4 2 10 12 9 16 31 10 30 36 17 15 8 15 13 1 7 8 12 12 17 32 37 29 8 28 37 44 52 13 12 17 29 41 53 64
35 33 29 28 23 28 24 23 12 5 2 5 11 10 14 22 9 23 33 13 10 8 9 4 5 15 6 15 8 9 26 14 35 44 35 24 15 8 4 7 39 53 51 53 53
32 35 26 26 17 26 19 25 12 6 9 10 7 8 13 17 3 16 22 11 5 1 10 11 9 9 12 11 3 21 11 33 42 24 7 11 9 4 9 12 34 55 57 59 64
28 33 24 20 19 19 22 22 8 3 8 6 11 12 12 9 14 13 17 8 4 5 11 11 7 9 10 12 6 21 40 37 30 9 9 13 4 7 11 21 43 46 69 69 68
32 30 23 15 16 18 20 19 5 12 9 9 8 16 11 15 12 23 14 16 4 4 3 13 11 6 8 23 10 19 24 12 5 2 5 7 3 5 9 22 40 52 64 70 75
38 29 19 11 10 13 19 13 9 9 6 12 6 9 2 9 10 15 10 12 8 13 14 15 7 6 4 13 10 18 13 9 14 10 8 5 6 11 8 29 27 35 61 69 66
45 36 16 14 8 7 15 9 6 4 11 4 5 4 4 11 6 14 5 6 7 6 6 8 15 7 12 4 11 9 8 6 9 8 20 13 7 9 8 40 47 49 56 60 58
43 26 18 16 13 4 9 6 14 13 7 5 4 8 9 4 1 10 5 2 4 6 6 5 13 9 6 4 4 13 9 6 9 4 6 8 12 10 23 38 44 49 51 60 69
38 22 16 16 9 7 8 9 4 4 5 5 8 5 3 7 8 9 4 6 3 5 8 6 12 5 13 4 6 9 4 9 6 11 11 12 11 8 45 49 40 40 50 57 58
27 7 12 16 11 9 6 10 7 11 7 6 8 5 6 4 3 2 6 6 4 5 8 6 5 13 6 2 9 10 10 5 2 5 6 11 9 7 38 34 38 34 51 55 57
19 6 18 21 7 6 2 3 3 6 6 5 5 6 10 9 4 3 9 12 7 5 6 8 7 11 17 7 5 7 4 5 3 10 6 8 9 10 35 25 40 44 50 54 53
12 9 23 30 5 5 2 6 8 8 7 8 8 7 5 10 2 8 6 5 7 8 8 7 4 9 15 9 4 4 8 2 7 6 5 10 11 15 39 33 47 45 51 56 55
15 5 6 20 5 9 9 9 7 12 7 8 4 7 5 2 4 5 5 4 3 5 4 7 6 13 11 13 3 10 17 6 6 3 12 9 31 29 33 40 47 54 55 56 57
20 8 12 6 12 11 9 9 7 8 11 14 4 16 12 8 1 9 8 6 3 2 4 6 8 4 12 21 8 12 13 12 4 10 3 22 24 29 20 30 50 50 54 55 59
17 16 13 13 11 16 11 12 20 9 17 10 11 12 15 12 14 14 9 8 7 1 4 3 6 2 10 11 10 9 11 12 3 5 10 12 6 19 41 32 40 51 60 58 58
27 22 12 21 13 6 11 12 16 20 24 9 22 9 17 26 22 7 10 6 7 9 5 3 5 6 11 10 10 10 14 9 7 8 7 2 8 13 26 30 44 46 46 49 54
Wind_Direction_500mb
356 4 360 359 358 356 10 351 342 337 349 356 0 357 9 49 49 30 37 20 6 2 358 354 3 16 67 59 61 60 70 224 250 195 286 351 5 307 304 280 280 268 280 292 303
342 347 352 359 1 356 353 346 343 347 359 6 6 354 0 38 31 36 29 11 358 359 359 5 11 15 64 32 35 64 113 237 254 314 291 304 299 300 303 290 283 291 287 295 296
1 358 355 352 353 350 346 343 337 342 0 6 0 351 1 77 59 20 13 4 359 357 0 359 5 12 57 31 17 350 211 141 275 303 327 301 296 262 278 263 264 276 297 302 301
6 0 2 3 357 351 346 351 357 359 359 2 359 0 41 90 61 8 2 349 349 352 350 10 21 32 45 21 358 347 291 325 292 303 316 293 290 276 257 261 280 286 292 296 297
2 5 3 2 0 4 4 4 360 357 355 2 1 13 109 74 43 2 349 342 352 4 10 21 29 29 27 340 333 199 301 310 297 297 292 290 268 262 269 280 290 292 292 295 301
6 3 5 10 6 3 0 356 354 356 1 3 34 70 90 77 15 354 355 13 359 360 8 16 19 9 62 307 325 311 293 293 293 292 284 282 277 298 289 291 297 295 292 293 294
11 9 10 8 5 1 358 353 359 6 8 23 90 85 66 52 6 348 4 355 360 7 7 13 13 15 333 333 325 289 307 311 307 292 284 337 274 231 285 305 293 293 297 298 296
8 11 10 10 5 2 358 355 13 8 12 19 47 85 69 23 2 6 4 6 356 1 1 16 3 7 25 317 330 347 339 351 271 310 279 89 282 275 288 297 299 300 296 293 292
8 7 8 9 6 3 358 3 21 11 357 24 25 65 58 357 23 15 4 352 357 6 28 18 12 43 17 20 9 9 298 300 311 226 270 195 285 279 297 299 290 291 296 294 293
5 3 4 8 5 5 1 5 5 25 10 5 22 74 13 348 353 10 3 352 1 7 30 16 33 53 29 45 315 297 311 277 288 289 273 284 275 281 283 272 279 307 335 324 298
357 1 2 4 4 7 11 355 351 6 43 62 18 29 337 351 15 2 358 351 8 47 27 12 48 311 255 196 239 268 280 289 288 284 286 281 281 289 290 287 13 356 349 346 338
349 354 357 359 360 4 9 39 38 352 66 42 23 21 350 354 336 8 1 16 31 26 345 17 219 252 278 270 250 256 283 293 289 274 305 294 295 290 328 94 48 1 346 343 335
340 345 351 354 354 358 10 28 23 29 32 14 13 3 347 348 345 348 1 0 78 35 36 283 288 315 280 300 271 269 287 282 289 312 291 289 295 100 2 65 2 0 348 338 334
323 330 344 350 359 352 357 3 8 50 71 304 351 2 345 336 319 10 10 12 22 343 344 251 289 319 316 292 258 312 256 298 298 320 308 50 289 310 336 346 360 351 343 336 334
307 313 327 339 342 354 342 347 359 45 15 296 316 333 348 52 324 5 1 20 341 292 76 258 329 1 322 277 25 257 306 304 296 245 296 328 261 279 4 346 344 340 338 335 334
287 298 303 322 337 336 343 342 335 42 268 337 319 352 14 15 3 334 6 27 306 344 223 253 298 235 240 298 269 323 311 353 15 103 12 263 1 352 16 336 331 334 332 331 332
263 277 278 288 317 341 344 339 25 116 354 305 332 11 92 325 346 10 16 17 37 19 10 328 278 295 283 314 334 7 6 342 2 3 254 287 317 243 194 358 337 324 326 327 328
257 263 254 263 275 345 7 42 68 227 233 334 347 335 68 359 13 339 33 46 55 85 67 30 331 14 343 91 274 339 87 114 302 317 302 352 263 280 194 352 338 332 329 326 330
251 230 225 233 230 230 67 64 209 202 172 163 6 50 318 9 171 15 3 188 192 147 135 359 277 301 208 301 105 307 25 217 263 183 6 287 292 311 351 335 339 342 337 333 337
244 215 227 222 212 129 77 243 249 251 135 114 172 143 214 295 0 51 356 244 124 168 163 206 298 250 291 343 350 137 308 354 1 329 310 292 292 266 342 346 342 341 340 336 339
223 213 183 194 176 102 166 225 236 219 183 159 187 170 213 219 181 262 251 275 188 149 151 129 137 288 350 356 204 350 353 343 165 263 303 304 292 297 356 341 334 335 337 338 347
216 164 180 166 103 93 206 224 224 190 211 217 140 145 180 169 202 248 239 219 183 178 181 195 184 277 244 263 147 146 257 257 292 301 259 258 290 336 2 338 336 335 340 347 2
188 165 186 179 173 198 135 275 238 161 221 193 198 210 172 178 38 212 236 254 216 173 169 158 311 331 346 7 23 46 300 27 275 279 273 320 307 356 348 349 350 346 351 359 7
185 125 148 196 205 146 144 232 227 201 211 197 165 148 160 215 212 263 256 264 222 188 118 193 213 180 208 220 199 316 310 341 69 39 310 280 316 333 353 352 354 354 358 5 14
191 157 174 174 225 159 175 166 150 209 214 198 263 218 182 180 138 227 235 285 143 347 99 116 214 280 250 264 219 241 258 304 79 243 312 314 324 343 357 353 349 356 2 7 12
192 153 169 156 135 143 191 218 197 174 159 213 218 209 187 185 188 196 164 218 208 341 115 75 265 78 293 322 260 266 237 268 138 279 256 289 300 336 336 351 5 358 359 6 12
193 181 188 162 150 168 202 212 206 149 214 191 206 144 204 239 228 212 218 206 170 150 148 94 119 53 273 342 335 323 222 214 221 191 211 351 252 316 330 349 360 359 6 9 19
Wind_Speed_850mb
24 26 30 32 27 22 26 28 21 23 28 25 21 20 19 12 20 23 30 30 38 41 36 29 17 19 8 11 9 3 6 4 7 6 6 10 14 12 17 30 26 23 49 64 66
28 30 31 32 25 23 25 26 29 26 25 22 19 19 14 4 9 40 35 30 36 40 40 42 38 27 9 10 9 9 5 7 5 4 6 17 16 30 18 36 25 63 64 52 52
30 28 33 36 29 29 29 30 32 27 23 18 16 16 10 3 6 25 34 35 36 37 33 26 25 17 11 10 14 7 6 0 7 12 16 19 24 8 11 14 52 43 66 68 67
31 32 33 32 30 28 29 29 29 27 24 19 17 14 9 8 6 25 34 39 37 35 28 26 26 11 9 8 10 9 7 8 18 24 26 12 24 19 42 66 55 61 70 71 71
30 29 30 30 31 30 28 26 26 25 22 19 16 10 10 16 13 22 40 37 30 26 29 30 32 12 7 9 18 3 7 20 37 62 48 46 40 32 60 75 71 55 46 50 51
32 30 31 30 30 29 28 28 27 22 18 17 12 13 10 12 21 26 34 23 31 28 23 25 17 13 2 4 2 15 32 37 38 41 33 22 20 10 21 60 57 57 60 54 55
32 32 30 31 30 29 29 28 21 17 18 16 9 20 28 16 25 31 24 27 30 23 19 13 13 14 13 8 14 17 15 13 10 6 11 15 15 17 32 37 53 61 60 62 71
31 30 29 29 29 29 28 23 14 18 13 15 10 3 9 19 31 20 26 21 12 23 17 10 10 8 8 15 12 12 5 12 6 23 10 9 22 8 37 36 54 66 68 77 85
32 31 31 29 29 28 28 16 13 17 12 14 12 6 6 15 22 26 36 32 9 19 11 13 9 9 9 7 8 13 9 24 18 5 9 11 34 11 34 68 74 72 71 70 77
31 32 33 30 29 28 28 12 7 18 14 5 15 6 19 25 12 25 37 30 13 16 5 17 13 7 8 10 5 19 21 17 32 8 17 35 52 44 57 56 57 46 47 50 58
32 32 33 32 28 28 28 9 8 2 25 15 11 5 20 34 6 26 36 20 16 16 10 14 11 1 7 9 10 14 27 42 44 38 32 35 40 40 51 43 14 35 44 52 53
33 32 30 31 27 29 23 12 12 4 2 10 12 9 16 31 10 30 36 17 15 8 15 13 1 7 8 12 12 17 32 37 29 8 28 37 44 52 13 12 17 29 41 53 64
35 33 29 28 23 28 24 23 12 5 2 5 11 10 14 22 9 23 33 13 10 8 9 4 5 15 6 15 8 9 26 14 35 44 35 24 15 8 4 7 39 53 51 53 53
32 35 26 26 17 26 19 25 12 6 9 10 7 8 13 17 3 16 22 11 5 1 10 11 9 9 12 11 3 21 11 33 42 24 7 11 9 4 9 12 34 55 57 59 64
28 33 24 20 19 19 22 22 8 3 8 6 11 12 12 9 14 13 17 8 4 5 11 11 7 9 10 12 6 21 40 37 30 9 9 13 4 7 11 21 43 46 69 69 68
32 30 23 15 16 18 20 19 5 12 9 9 8 16 11 15 12 23 14 16 4 4 3 13 11 6 8 23 10 19 24 12 5 2 5 7 3 5 9 22 40 52 64 70 75
38 29 19 11 10 13 19 13 9 9 6 12 6 9 2 9 10 15 10 12 8 13 14 15 7 6 4 13 10 18 13 9 14 10 8 5 6 11 8 29 27 35 61 69 66
45 36 16 14 8 7 15 9 6 4 11 4 5 4 4 11 6 14 5 6 7 6 6 8 15 7 12 4 11 9 8 6 9 8 20 13 7 9 8 40 47 49 56 60 58
43 26 18 16 13 4 9 6 14 13 7 5 4 8 9 4 1 10 5 2 4 6 6 5 13 9 6 4 4 13 9 6 9 4 6 8 12 10 23 38 44 49 51 60 69
38 22 16 16 9 7 8 9 4 4 5 5 8 5 3 7 8 9 4 6 3 5 8 6 12 5 13 4 6 9 4 9 6 11 11 12 11 8 45 49 40 40 50 57 58
27 7 12 16 11 9 6 10 7 11 7 6 8 5 6 4 3 2 6 6 4 5 8 6 5 13 6 2 9 10 10 5 2 5 6 11 9 7 38 34 38 34 51 55 57
19 6 18 21 7 6 2 3 3 6 6 5 5 6 10 9 4 3 9 12 7 5 6 8 7 11 17 7 5 7 4 5 3 10 6 8 9 10 35 25 40 44 50 54 53
12 9 23 30 5 5 2 6 8 8 7 8 8 7 5 10 2 8 6 5 7 8 8 7 4 9 15 9 4 4 8 2 7 6 5 10 11 15 39 33 47 45 51 56 55
15 5 6 20 5 9 9 9 7 12 7 8 4 7 5 2 4 5 5 4 3 5 4 7 6 13 11 13 3 10 17 6 6 3 12 9 31 29 33 40 47 54 55 56 57
20 8 12 6 12 11 9 9 7 8 11 14 4 16 12 8 1 9 8 6 3 2 4 6 8 4 12 21 8 12 13 12 4 10 3 22 24 29 20 30 50 50 54 55 59
17 16 13 13 11 16 11 12 20 9 17 10 11 12 15 12 14 14 9 8 7 1 4 3 6 2 10 11 10 9 11 12 3 5 10 12 6 19 41 32 40 51 60 58 58
27 22 12 21 13 6 11 12 16 20 24 9 22 9 17 26 22 7 10 6 7 9 5 3 5 6 11 10 10 10 14 9 7 8 7 2 8 13 26 30 44 46 46 49 54
Wind_Direction_850mb
356 4 360 359 358 356 10 351 342 337 349 356 0 357 9 49 49 30 37 20 6 2 358 354 3 16 67 59 61 60 70 224 250 195 286 351 5 307 304 280 280 268 280 292 303
342 347 352 359 1 356 353 346 343 347 359 6 6 354 0 38 31 36 29 11 358 359 359 5 11 15 64 32 35 64 113 237 254 314 291 304 299 300 303 290 283 291 287 295 296
1 358 355 352 353 350 346 343 337 342 0 6 0 351 1 77 59 20 13 4 359 357 0 359 5 12 57 31 17 350 211 141 275 303 327 301 296 262 278 263 264 276 297 302 301
6 0 2 3 357 351 346 351 357 359 359 2 359 0 41 90 61 8 2 349 349 352 350 10 21 32 45 21 358 347 291 325 292 303 316 293 290 276 257 261 280 286 292 296 297
2 5 3 2 0 4 4 4 360 357 355 2 1 13 109 74 43 2 349 342 352 4 10 21 29 29 27 340 333 199 301 310 297 297 292 290 268 262 269 280 290 292 292 295 301
6 3 5 10 6 3 0 356 354 356 1 3 34 70 90 77 15 354 355 13 359 360 8 16 19 9 62 307 325 311 293 293 293 292 284 282 277 298 289 291 297 295 292 293 294
11 9 10 8 5 1 358 353 359 6 8 23 90 85 66 52 6 348 4 355 360 7 7 13 13 15 333 333 325 289 307 311 307 292 284 337 274 231 285 305 293 293 297 298 296
8 11 10 10 5 2 358 355 13 8 12 19 47 85 69 23 2 6 4 6 356 1 1 16 3 7 25 317 330 347 339 351 271 310 279 89 282 275 288 297 299 300 296 293 292
8 7 8 9 6 3 358 3 21 11 357 24 25 65 58 357 23 15 4 352 357 6 28 18 12 43 17 20 9 9 298 300 311 226 270 195 285 279 297 299 290 291 296 294 293
5 3 4 8 5 5 1 5 5 25 10 5 22 74 13 348 353 10 3 352 1 7 30 16 33 53 29 45 315 297 311 277 288 289 273 284 275 281 283 272 279 307 335 324 298
357 1 2 4 4 7 11 355 351 6 43 62 18 29 337 351 15 2 358 351 8 47 27 12 48 311 255 196 239 268 280 289 288 284 286 281 281 289 290 287 13 356 349 346 338
349 354 357 359 360 4 9 39 38 352 66 42 23 21 350 354 336 8 1 16 31 26 345 17 219 252 278 270 250 256 283 293 289 274 305 294 295 290 328 94 48 1 346 343 335
340 345 351 354 354 358 10 28 23 29 32 14 13 3 347 348 345 348 1 0 78 35 36 283 288 315 280 300 271 269 287 282 289 312 291 289 295 100 2 65 2 0 348 338 334
323 330 344 350 359 352 357 3 8 50 71 304 351 2 345 336 319 10 10 12 22 343 344 251 289 319 316 292 258 312 256 298 298 320 308 50 289 310 336 346 360 351 343 336 334
307 313 327 339 342 354 342 347 359 45 15 296 316 333 348 52 324 5 1 20 341 292 76 258 329 1 322 277 25 257 306 304 296 245 296 328 261 279 4 346 344 340 338 335 334
287 298 303 322 337 336 343 342 335 42 268 337 319 352 14 15 3 334 6 27 306 344 223 253 298 235 240 298 269 323 311 353 15 103 12 263 1 352 16 336 331 334 332 331 332
263 277 278 288 317 341 344 339 25 116 354 305 332 11 92 325 346 10 16 17 37 19 10 328 278 295 283 314 334 7 6 342 2 3 254 287 317 243 194 358 337 324 326 327 328
257 263 254 263 275 345 7 42 68 227 233 334 347 335 68 359 13 339 33 46 55 85 67 30 331 14 343 91 274 339 87 114 302 317 302 352 263 280 194 352 338 332 329 326 330
251 230 225 233 230 230 67 64 209 202 172 163 6 50 318 9 171 15 3 188 192 147 135 359 277 301 208 301 105 307 25 217 263 183 6 287 292 311 351 335 339 342 337 333 337
244 215 227 222 212 129 77 243 249 251 135 114 172 143 214 295 0 51 356 244 124 168 163 206 298 250 291 343 350 137 308 354 1 329 310 292 292 266 342 346 342 341 340 336 339
223 213 183 194 176 102 166 225 236 219 183 159 187 170 213 219 181 262 251 275 188 149 151 129 137 288 350 356 204 350 353 343 165 263 303 304 292 297 356 341 334 335 337 338 347
216 164 180 166 103 93 206 224 224 190 211 217 140 145 180 169 202 248 239 219 183 178 181 195 184 277 244 263 147 146 257 257 292 301 259 258 290 336 2 338 336 335 340 347 2
188 165 186 179 173 198 135 275 238 161 221 193 198 210 172 178 38 212 236 254 216 173 169 158 311 331 346 7 23 46 300 27 275 279 273 320 307 356 348 349 350 346 351 359 7
185 125 148 196 205 146 144 232 227 201 211 197 165 148 160 215 212 263 256 264 222 188 118 193 213 180 208 220 199 316 310 341 69 39 310 280 316 333 353 352 354 354 358 5 14
191 157 174 174 225 159 175 166 150 209 214 198 263 218 182 180 138 227 235 285 143 347 99 116 214 280 250 264 219 241 258 304 79 243 312 314 324 343 357 353 349 356 2 7 12
192 153 169 156 135 143 191 218 197 174 159 213 218 209 187 185 188 196 164 218 208 341 115 75 265 78 293 322 260 266 237 268 138 279 256 289 300 336 336 351 5 358 359 6 12
193 181 188 162 150 168 202 212 206 149 214 191 206 144 204 239 228 212 218 206 170 150 148 94 119 53 273 342 335 323 222 214 221 191 211 351 252 316 330 349 360 359 6 9 19